Aeroporto :
LOGIN :

Iscrizione | Disclaimer

   EN    FR    IT 

 










Sommario :    VFR   VFR Marginale   IFR   IFR Intensivo   IFR Molto Intensivo
Visibilità : 
Base nubi : 
>= 8 km
>= 3000ft
5 / 8 km
1000 / 3000 ft
1500m / 5 km
500 / 1000 ft
800 / 1500m
200 / 500 ft
< 800m
< 200 ft
Simboli :   Temporali  Nebbia  Neve Forte  Precipitazioni Forti  Vento > 20 kt
SIGMETs :   Varie  Temporali  Ghiacco  Turbolenza  Onda orograficha  Ceneri Vulcaniche







- Altitudine del aeroporto : 538 ft
- Codice IATA : TNF
- Carte del aeroporto


LFPN - Toussus Le Noble

ULTIMO METAR :
  • 211630Z AUTO 01006KT 320V050 CAVOK 24/14 Q1014 NOSIG

METARs OBSOLETI :
  • 211600Z AUTO 31008KT CAVOK 24/14 Q1014 NOSIG
  • 211530Z AUTO 33008KT 300V360 CAVOK 24/14 Q1014 NOSIG
  • 211500Z AUTO 31004KT 270V350 CAVOK 24/13 Q1014 NOSIG
  • 211430Z AUTO 29005KT 200V360 9999 SCT046 BKN058 BKN078 24/13 Q1014 NOSIG
  • 211400Z AUTO 31006KT 250V350 9999 FEW043 25/14 Q1014 NOSIG

TAF AMD TAF LFPN
Valido dal 21 a 15 ore il 22 a 00 ore UTC


211410Z 2115/2124 30005KT CAVOK
ATIS : +33 1 39 56 54 70
Nessun NOTAM noto per questo aeroporto.



MetMap, La meteo Aeronautica in un colpo d'occhio ! - Copyright ORBIFLY Dicembre 2007 - Disclaimer

ORBIFLY MET'MAP TEAM :

Programmazione e sviluppo : Alexandra Zaïnal
Concezione e sviluppo : Baudouin d'Aumeries
Co-Programmazione e sviluppo : Marc-Olivier Méhu
Supporto tecnico e logistico : Manuel Goepfert
Aiuto per la traduzione : Arnaldo La Scala

Contatto : metmap@orbifly.com




FONTI E CREDITI :

   NOAA